Weather Roundup
Issued by NWS Springfield, MO

Home | Current Version | Previous Version | Text Only | Print | Product List | Glossary On
Versions: 1 2 3 4 5 6 7 8 9 10 11 12 13 14 15 16 17 18 19 20 21 22 23 24 25 26 27 28 29 30 31 32 33 34 35 36 37 38 39 40 41 42 43 44 45 46 47 48 49 50
000
NZUS99 KSGF 201207
HRRSGF

HOURLY WEATHER
NATIONAL WEATHER SERVICE SPRINGFIELD MO
700 AM CDT FRI OCT 20 2017

......SGF CWA......

CITY           SKY/WX    TMP DP  RH WIND       PRES   REMARKS
SPRINGFIELD    FAIR      54  50  86 S12       30.17S
6HR MIN TEMP:  51; 6HR MAX TEMP:  59;

JOPLIN         FAIR      56  53  90 S7        30.14S
6HR MIN TEMP:  55; 6HR MAX TEMP:  57;

WEST PLAINS    FAIR      45  44  97 CALM      30.22S
6HR MIN TEMP:  45; 6HR MAX TEMP:  57;

ROLLA          FAIR      54  49  83 S12       30.19S
6HR MIN TEMP:  54; 6HR MAX TEMP:  62;

OSAGE BEACH    FAIR      49  48  97 S3        30.19S
BRANSON        PTCLDY    50  48  93 CALM      30.19S

......SURROUNDING SGF CWA......

CITY           SKY/WX    TMP DP  RH WIND       PRES   REMARKS
CHANUTE        FAIR      55  51  86 S9        30.10S
PARSONS        FAIR      57  51  80 S6        30.11S
COFFEYVILLE    FAIR      54  51  90 S6        30.10S
EMPORIA        FAIR      55  51  86 S16       30.04S
GROVE OK       FAIR      50  48  93 CALM      30.15F
ROGERS AR      FAIR      55  51  86 SE7       30.17F
SILOAM SPRINGS FAIR      54  50  86 E5        30.16F
HARRISON AR    FAIR      56  49  77 SE3       30.18F
NEAR YELLVILLE FAIR      47  45  93 CALM      30.20R

......KANSAS AND MISSOURI......

CITY           SKY/WX    TMP DP  RH WIND       PRES   REMARKS
KANSAS CTY INT MOCLDY    56  52  86 S10       30.07F
DOWNTOWN KC    FAIR      59  53  80 S7        30.08S
COLUMBIA       FAIR      51  48  89 S7        30.16F
SEDALIA        FAIR      57  52  83 S10       30.14F
ST JOSEPH      FAIR      54  53  97 S8        30.05F
ST LOUIS       FAIR      53  50  89 CALM      30.21R
SPIRIT OF STL  FAIR      45  45 100 CALM      30.20R
KIRKSVILLE     FAIR      55  52  89 S8        30.13S
WICHITA        FAIR      58  54  86 S14       30.01S
TOPEKA         FAIR      59  53  80 S9        30.04S
OLATHE         FAIR      53  50  89 S7        30.09S

......TENNESSEE......

CITY           SKY/WX    TMP DP  RH WIND       PRES   REMARKS
MEMPHIS        FAIR      54  50  86 CALM      30.22S
NASHVILLE      FAIR      45  42  89 S3        30.30S

......ARKANSAS.......

CITY           SKY/WX    TMP DP  RH WIND       PRES   REMARKS
FAYETTEVILLE   FAIR      49  49 100 CALM      30.16F
FT SMITH       FAIR      56  54  93 E6        30.14F
LITTLE ROCK    MOCLDY    51  51 100 CALM      30.21R

......OKLAHOMA.......

CITY           SKY/WX    TMP DP  RH WIND       PRES   REMARKS
TULSA          MOCLDY    59  54  83 SE10      30.09S
PONCA CITY     FAIR      61  53  75 S15       30.05S
MCALESTER      LGT RAIN  62  56  80 SE5       30.11F
OKLAHOMA CITY  MOCLDY    58  54  86 S9        30.05F

......IOWA............

CITY           SKY/WX    TMP DP  RH WIND       PRES   REMARKS
DES MOINES     FAIR      55  51  86 S10       30.04S
QUAD CITIES    FAIR      55  48  77 CALM      30.12R

......ILLINOIS........

CITY           SKY/WX    TMP DP  RH WIND       PRES   REMARKS
QUINCY         NOT AVBL
CHICAGO        FAIR      53  47  79 S3        30.16S



USA.gov is the U.S. government's official web portal to all federal, state and local government web resources and services.